Poplar Bluff, MO

7:25 PM CDT on October 21, 2017 (GMT -0500)
Poplar Bluff Municipal

Weather History for KPOF - July, 2013

Change the Weather History Date:

Monday, July 29, 2013

  Actual Average Record
Temperature  
Mean Temperature 70 °F -  
Max Temperature 75 °F 89 °F 103 °F (1993)
Min Temperature 64 °F 68 °F 54 °F (1965)
Cooling Degree Days 4    
Growing Degree Days 20 (Base 50)    
Moisture  
Dew Point 63 °F    
Average Humidity 79    
Maximum Humidity 93    
Minimum Humidity 64    
Precipitation  
Precipitation 0.01 in - - ()
Sea Level Pressure  
Sea Level Pressure 30.12 in    
Wind  
Wind Speed 1 mph (East)    
Max Wind Speed 6 mph    
Max Gust Speed -    
Visibility 10 miles    
Events Rain    
Averages and records for this station are not official NWS values.
T = Trace of Precipitation, MM = Missing Value Source: NWS Daily Summary

Daily Weather History Graph

Daily Weather History Graph

Search for Another Location

Airport or City:

Trip Planner

Search our weather history database for the weather conditions in past years. The results will help you decide how hot, cold, wet, or windy it might be!

Date:

Astronomy

Jul. 29, 2013 Rise Set
Actual Time 6:04 AM CDT 8:10 PM CDT
Civil Twilight 5:35 AM CDT 8:38 PM CDT
Nautical Twilight 5:00 AM CDT 9:14 PM CDT
Astronomical Twilight 4:22 AM CDT 9:51 PM CDT
Moon No Moon Rise 1:33 PM CDT (7/29)
Length of Visible Light 15h 03m
Length of Day
14h 05m
Waning Gibbous, 50% of the Moon is Illuminated
Jul 29
Waning Gibbous
Jul 29
Last Quarter
Aug 6
New
Aug 14
First Quarter
Aug 20
Full

Hourly Weather History & Observations

Time (CDT) Temp. Dew Point Humidity Pressure Visibility Wind Dir Wind Speed Gust Speed Precip Events Conditions
12:53 AM 66.0 °F 63.0 °F 90% 30.07 in 10.0 mi Calm Calm - N/A   Clear
1:53 AM 66.0 °F 63.0 °F 90% 30.07 in 10.0 mi Calm Calm - N/A   Clear
2:53 AM 64.9 °F 63.0 °F 93% 30.07 in 10.0 mi Calm Calm - N/A   Clear
3:53 AM 66.0 °F 63.0 °F 90% 30.08 in 10.0 mi Calm Calm - N/A   Mostly Cloudy
4:53 AM 66.0 °F 63.0 °F 90% 30.09 in 10.0 mi Calm Calm - 0.00 in   Scattered Clouds
5:53 AM 66.0 °F 63.0 °F 90% 30.11 in 10.0 mi Calm Calm - N/A   Clear
6:53 AM 66.0 °F 63.0 °F 90% 30.11 in 10.0 mi Calm Calm - N/A   Clear
7:53 AM 66.9 °F 64.0 °F 90% 30.13 in 10.0 mi Calm Calm - N/A   Clear
8:53 AM 69.1 °F 64.0 °F 84% 30.14 in 10.0 mi Calm Calm - N/A   Clear
9:53 AM 71.1 °F 64.0 °F 78% 30.14 in 10.0 mi Calm Calm - N/A   Clear
10:53 AM 72.0 °F 64.0 °F 76% 30.16 in 10.0 mi SSE 3.5 mph - N/A   Clear
11:53 AM 75.0 °F 62.1 °F 64% 30.15 in 10.0 mi SE 5.8 mph - N/A   Clear
12:53 PM 73.9 °F 62.1 °F 66% 30.14 in 10.0 mi SSE 5.8 mph - 0.00 in   Partly Cloudy
1:53 PM 73.9 °F 62.1 °F 66% 30.14 in 10.0 mi SSE 5.8 mph - N/A   Clear
2:53 PM 73.9 °F 63.0 °F 68% 30.12 in 10.0 mi ESE 3.5 mph - 0.01 in Rain Light Rain
3:53 PM 75.0 °F 64.9 °F 71% 30.12 in 10.0 mi NE 4.6 mph - 0.00 in   Partly Cloudy
4:53 PM 73.9 °F 64.0 °F 71% 30.13 in 10.0 mi NE 4.6 mph - N/A   Clear
5:53 PM 75.0 °F 63.0 °F 66% 30.12 in 10.0 mi ENE 5.8 mph - N/A   Clear
6:53 PM 73.9 °F 63.0 °F 68% 30.11 in 10.0 mi East 4.6 mph - N/A   Clear
7:53 PM 72.0 °F 64.0 °F 76% 30.11 in 10.0 mi East 3.5 mph - N/A   Clear
8:53 PM 70.0 °F 64.0 °F 81% 30.12 in 10.0 mi Calm Calm - N/A   Clear
9:53 PM 70.0 °F 64.0 °F 81% 30.12 in 10.0 mi Calm Calm - N/A   Clear
10:53 PM 69.1 °F 64.0 °F 84% 30.12 in 10.0 mi NE 3.5 mph - N/A   Partly Cloudy
11:53 PM 69.1 °F 63.0 °F 81% 30.10 in 10.0 mi NE 3.5 mph - N/A   Clear